User: anonymous   Login
Location: Kuppenheim
(48.8299°N, 8.2568°E)
Time: 17:47:09
(UTC+00:00)
Language:

Cosmos 1437 - Orbit

View from above orbital plane
View from above orbital plane
View from above satellite
View from above satellite

Ground track
Ground track

The orbit data is extracted from the following two-line orbital elements,

1 13770U 83003A   21267.79249493  .00065345  00000-0  29714-3 0  9996
2 13770  81.1517   1.3816 0000240  44.6228 315.5056 15.83621751129853
Epoch (UTC): 24 September 2021 19:01:11
Eccentricity: 0.0000240
inclination: 81.1517°
perigee height: 320 km
apogee height: 320 km
right ascension of ascending node: 1.3816°
argument of perigee: 44.6228°
revolutions per day: 15.83621751
mean anomaly at epoch: 315.5056°
orbit number at epoch: 12985

The dashed part of the orbit path shows where the satellite is in the earth's shadow,  

DLR